Weather History for Eagle River, WI

Change the Weather History Date:

Sunday, April 13, 2014

  Actual Average Record
Temperature  
Mean Temperature 38 °F -  
Max Temperature 46 °F 45 °F 66 °F (1998)
Min Temperature 30 °F 27 °F 12 °F (1992)
Degree Days  
Heating Degree Days 26    
Moisture  
Dew Point 34 °F    
Average Humidity 89    
Maximum Humidity 100    
Minimum Humidity 71    
Precipitation  
Precipitation 0.00 in - - ()
Sea Level Pressure  
Sea Level Pressure 29.78 in    
Wind  
Wind Speed 5 mph (North)    
Max Wind Speed 15 mph    
Max Gust Speed 21 mph    
Visibility 7 miles    
Events Snow    
Averages and records for this station are not official NWS values.
T = Trace of Precipitation, MM = Missing Value Source: NWS Daily Summary

Daily Weather History Graph

Daily Weather History Graph

Search for Another Location

Airport:

Trip Planner

Search our weather history database for the weather conditions in past years. The results will help you decide how hot, cold, wet, or windy it might be!

Date:

Astronomy

Apr. 13, 2014 Rise Set
Actual Time 6:14 AM CDT 7:41 PM CDT
Civil Twilight 5:43 AM CDT 8:12 PM CDT
Nautical Twilight 5:05 AM CDT 8:50 PM CDT
Astronomical Twilight 4:25 AM CDT 9:30 PM CDT
Moon 6:15 PM CDT (4/13) 5:18 AM CDT (4/13)
Length of Visible Light 14h 29m
Length of Day
13h 26m
Waxing Gibbous, 97% of the Moon is Illuminated
Apr 13
Waxing Gibbous
Apr 15
Full
Apr 22
Last Quarter
Apr 29
New
May 6
First Quarter

Hourly Weather History & Observations

Time (CDT) Temp. Windchill Dew Point Humidity Pressure Visibility Wind Dir Wind Speed Gust Speed Precip Events Conditions
12:15 AM 35.6 °F 30.7 °F 35.6 °F 100% 29.77 in 3.0 mi East 5.8 mph - N/A   Overcast
12:18 AM 35.6 °F 30.7 °F 35.6 °F 100% 29.76 in 3.0 mi ENE 5.8 mph - N/A   Overcast
12:55 AM 35.6 °F 31.7 °F 35.6 °F 100% 29.77 in 3.0 mi East 4.6 mph - N/A   Overcast
12:58 AM 35.6 °F 31.7 °F 35.6 °F 100% 29.77 in 3.0 mi East 4.6 mph - N/A   Overcast
1:15 AM 35.6 °F 31.7 °F 35.6 °F 100% 29.76 in 3.0 mi East 4.6 mph - N/A   Overcast
1:19 AM 35.6 °F 32.8 °F 35.6 °F 100% 29.76 in 3.0 mi East 3.5 mph - N/A   Overcast
1:35 AM 35.6 °F 32.8 °F 35.6 °F 100% 29.76 in 3.0 mi East 3.5 mph - N/A   Overcast
1:38 AM 35.6 °F 32.8 °F 35.6 °F 100% 29.75 in 3.0 mi East 3.5 mph - N/A   Overcast
1:55 AM 35.2 °F 31.2 °F 35.2 °F 100% 29.76 in 4.0 mi East 4.6 mph - N/A   Overcast
1:58 AM 35.6 °F 31.7 °F 35.6 °F 100% 29.76 in 4.0 mi ENE 4.6 mph - N/A   Overcast
2:15 AM 35.4 °F 31.5 °F 35.4 °F 100% 29.76 in 4.0 mi East 4.6 mph - N/A   Overcast
2:19 AM 35.6 °F 32.8 °F 35.6 °F 100% 29.76 in 4.0 mi East 3.5 mph - N/A   Overcast
2:35 AM 35.2 °F 32.4 °F 35.2 °F 100% 29.75 in 3.0 mi East 3.5 mph - N/A   Overcast
2:38 AM 35.6 °F 32.8 °F 35.6 °F 100% 29.75 in 3.0 mi East 3.5 mph - N/A   Overcast
2:55 AM 35.2 °F 32.4 °F 35.2 °F 100% 29.75 in 3.0 mi East 3.5 mph - N/A   Overcast
2:58 AM 35.6 °F - 35.6 °F 100% 29.75 in 2.5 mi Calm Calm - N/A   Overcast
3:15 AM 35.1 °F - 35.1 °F 100% 29.75 in 3.0 mi Calm Calm - N/A   Overcast
3:18 AM 35.6 °F - 35.6 °F 100% 29.75 in 3.0 mi Calm Calm - N/A   Overcast
3:35 AM 35.1 °F - 35.1 °F 100% 29.74 in 2.5 mi Calm Calm - N/A   Overcast
3:38 AM 35.6 °F - 35.6 °F 100% 29.75 in 2.0 mi Calm Calm - N/A   Overcast
3:55 AM 34.9 °F - 34.9 °F 100% 29.75 in 1.0 mi Calm Calm - N/A   Overcast
3:59 AM 35.6 °F - 35.6 °F 100% 29.75 in 1.0 mi Calm Calm - N/A   Overcast
4:15 AM 34.9 °F - 34.9 °F 100% 29.74 in 1.0 mi Calm Calm - N/A   Overcast
4:18 AM 35.6 °F - 35.6 °F 100% 29.74 in 1.0 mi Calm Calm - N/A   Overcast
4:35 AM 34.9 °F - 34.9 °F 100% 29.74 in 1.0 mi Calm Calm - N/A   Overcast
4:38 AM 35.6 °F - 35.6 °F 100% 29.74 in 1.0 mi Calm Calm - N/A   Overcast
4:55 AM 34.9 °F - 34.9 °F 100% 29.75 in 1.2 mi Calm Calm - N/A   Overcast
4:58 AM 35.6 °F - 35.6 °F 100% 29.75 in 1.5 mi Calm Calm - N/A   Overcast
5:15 AM 34.9 °F - 34.9 °F 100% 29.75 in 3.0 mi Calm Calm - N/A   Overcast
5:35 AM 35.1 °F - 35.1 °F 100% 29.74 in 4.0 mi Calm Calm - N/A   Overcast
5:38 AM 35.6 °F - 35.6 °F 100% 29.74 in 4.0 mi Calm Calm - N/A   Overcast
5:55 AM 35.1 °F - 35.1 °F 100% 29.73 in 5.0 mi Calm Calm - N/A   Overcast
5:58 AM 35.6 °F - 35.6 °F 100% 29.73 in 5.0 mi Calm Calm - N/A   Overcast
6:15 AM 35.1 °F - 35.1 °F 100% 29.74 in 4.0 mi Calm Calm - N/A   Overcast
6:18 AM 35.6 °F - 35.6 °F 100% 29.74 in 4.0 mi Calm Calm - N/A   Overcast
6:35 AM 35.1 °F - 35.1 °F 100% 29.75 in 5.0 mi Calm Calm - N/A   Overcast
6:38 AM 35.6 °F - 35.6 °F 100% 29.75 in 5.0 mi Calm Calm - N/A   Overcast
6:55 AM 35.4 °F - 35.4 °F 100% 29.76 in 5.0 mi Calm Calm - N/A   Overcast
6:58 AM 35.6 °F - 35.6 °F 100% 29.76 in 7.0 mi Calm Calm - N/A   Overcast
7:15 AM 35.6 °F - 35.6 °F 100% 29.77 in 7.0 mi Calm Calm - N/A   Overcast
7:55 AM 35.8 °F - 35.8 °F 100% 29.77 in 10.0 mi Calm Calm - N/A   Overcast
7:58 AM 35.6 °F - 35.6 °F 100% 29.77 in 10.0 mi Calm Calm - N/A   Overcast
8:15 AM 36.3 °F - 36.0 °F 99% 29.78 in 10.0 mi Calm Calm - N/A   Overcast
8:18 AM 35.6 °F - 35.6 °F 100% 29.78 in 10.0 mi Calm Calm - N/A   Overcast
8:35 AM 36.7 °F - 36.0 °F 97% 29.78 in 10.0 mi Calm Calm - N/A   Overcast
8:38 AM 37.4 °F - 35.6 °F 93% 29.78 in 10.0 mi Calm Calm - N/A   Overcast
8:55 AM 37.4 °F 33.8 °F 36.5 °F 97% 29.79 in 10.0 mi NNW 4.6 mph - N/A   Overcast
8:58 AM 37.4 °F 33.8 °F 35.6 °F 93% 29.79 in 10.0 mi NW 4.6 mph - N/A   Overcast
9:15 AM 37.8 °F 34.2 °F 36.7 °F 96% 29.79 in 10.0 mi North 4.6 mph - N/A   Overcast
9:18 AM 37.4 °F 34.9 °F 37.4 °F 100% 29.79 in 10.0 mi North 3.5 mph - N/A   Overcast
9:35 AM 38.8 °F 35.4 °F 37.0 °F 93% 29.79 in 10.0 mi NNW 4.6 mph - N/A   Overcast
9:38 AM 39.2 °F 35.9 °F 37.4 °F 93% 29.80 in 10.0 mi NNW 4.6 mph - N/A   Overcast
9:55 AM 39.2 °F 37.0 °F 36.9 °F 91% 29.79 in 10.0 mi NNW 3.5 mph - N/A   Overcast
9:58 AM 39.2 °F 37.0 °F 37.4 °F 93% 29.79 in 10.0 mi North 3.5 mph - N/A   Overcast
10:15 AM 40.1 °F 38.0 °F 37.2 °F 89% 29.79 in 10.0 mi North 3.5 mph - N/A   Overcast
10:35 AM 41.4 °F 36.2 °F 37.4 °F 86% 29.78 in 10.0 mi North 8.1 mph - N/A   Overcast
10:38 AM 42.8 °F 37.5 °F 37.4 °F 81% 29.78 in 10.0 mi North 9.2 mph - N/A   Overcast
10:55 AM 43.3 °F 38.6 °F 37.0 °F 78% 29.78 in 10.0 mi North 8.1 mph - N/A   Overcast
10:58 AM 44.6 °F 40.2 °F 37.4 °F 76% 29.77 in 10.0 mi North 8.1 mph - N/A   Overcast
11:15 AM 43.5 °F 38.3 °F 37.0 °F 78% 29.78 in 10.0 mi NNW 9.2 mph - N/A   Overcast
11:18 AM 44.6 °F 38.8 °F 37.4 °F 76% 29.78 in 10.0 mi North 11.5 mph - N/A   Overcast
11:35 AM 45.1 °F 40.3 °F 37.8 °F 75% 29.76 in 10.0 mi North 9.2 mph - N/A   Overcast
11:38 AM 46.4 °F 41.5 °F 37.4 °F 71% 29.75 in 10.0 mi North 10.4 mph - N/A   Overcast
11:55 AM 45.3 °F 41.6 °F 37.6 °F 74% 29.77 in 10.0 mi North 6.9 mph 16.1 mph N/A   Overcast
11:59 AM 44.6 °F 41.4 °F 37.4 °F 76% 29.78 in 10.0 mi North 5.8 mph - N/A   Overcast
12:15 PM 44.4 °F 40.5 °F 36.5 °F 74% 29.80 in 10.0 mi North 6.9 mph - N/A   Overcast
12:18 PM 44.6 °F 39.2 °F 37.4 °F 76% 29.81 in 10.0 mi NNW 10.4 mph - N/A   Overcast
12:35 PM 43.3 °F 38.1 °F 36.1 °F 76% 29.82 in 10.0 mi NNW 9.2 mph - N/A   Overcast
12:38 PM 42.8 °F 37.5 °F 35.6 °F 76% 29.81 in 10.0 mi NNW 9.2 mph - N/A   Overcast
12:55 PM 43.7 °F 40.3 °F 36.3 °F 75% 29.82 in 10.0 mi North 5.8 mph - N/A   Overcast
12:58 PM 44.6 °F 40.7 °F 35.6 °F 71% 29.82 in 10.0 mi NNW 6.9 mph - N/A   Overcast
1:15 PM 43.5 °F 40.9 °F 36.3 °F 76% 29.84 in 10.0 mi WNW 4.6 mph - N/A   Overcast
1:18 PM 44.6 °F 41.4 °F 35.6 °F 71% 29.84 in 10.0 mi WNW 5.8 mph - N/A   Overcast
1:35 PM 43.9 °F 39.9 °F 36.1 °F 74% 29.82 in 10.0 mi NNW 6.9 mph - N/A   Overcast
1:55 PM 45.0 °F 40.1 °F 36.7 °F 73% 29.81 in 10.0 mi NNE 9.2 mph - N/A   Mostly Cloudy
1:58 PM 44.6 °F 40.2 °F 37.4 °F 76% 29.80 in 10.0 mi North 8.1 mph - N/A   Mostly Cloudy
2:15 PM 45.1 °F 40.3 °F 36.5 °F 72% 29.80 in 10.0 mi North 9.2 mph - N/A   Mostly Cloudy
2:18 PM 44.6 °F 40.2 °F 35.6 °F 71% 29.79 in 10.0 mi North 8.1 mph - N/A   Mostly Cloudy
2:35 PM 44.6 °F 40.2 °F 36.0 °F 72% 29.79 in 10.0 mi North 8.1 mph - N/A   Overcast
2:38 PM 44.6 °F 40.2 °F 35.6 °F 71% 29.79 in 10.0 mi North 8.1 mph - N/A   Overcast
2:55 PM 43.5 °F 38.9 °F 35.4 °F 73% 29.80 in 10.0 mi North 8.1 mph - N/A   Overcast
2:58 PM 44.6 °F 40.2 °F 35.6 °F 71% 29.80 in 10.0 mi North 8.1 mph - N/A   Overcast
3:15 PM 42.6 °F 37.8 °F 35.2 °F 75% 29.80 in 10.0 mi North 8.1 mph - N/A   Overcast
3:35 PM 41.9 °F 37.5 °F 34.9 °F 76% 29.81 in 10.0 mi NNW 6.9 mph - N/A   Overcast
3:38 PM 42.8 °F 36.6 °F 35.6 °F 76% 29.81 in 10.0 mi North 11.5 mph - N/A   Overcast
3:55 PM 40.5 °F 35.1 °F 34.3 °F 79% 29.80 in 10.0 mi North 8.1 mph - N/A   Overcast
4:15 PM 39.9 °F 33.4 °F 34.0 °F 79% 29.80 in 10.0 mi North 10.4 mph - N/A   Overcast
4:18 PM 39.2 °F 32.0 °F 33.8 °F 81% 29.80 in 10.0 mi North 11.5 mph - N/A   Overcast
4:35 PM 38.7 °F 32.4 °F 33.6 °F 82% 29.81 in 10.0 mi North 9.2 mph - N/A   Overcast
4:38 PM 37.4 °F 30.3 °F 33.8 °F 87% 29.81 in 10.0 mi North 10.4 mph - N/A   Overcast
4:55 PM 37.8 °F 29.8 °F 32.9 °F 83% 29.81 in 10.0 mi NNW 12.7 mph - N/A   Overcast
4:58 PM 37.4 °F 30.3 °F 33.8 °F 87% 29.81 in 10.0 mi North 10.4 mph - N/A   Overcast
5:15 PM 36.9 °F 30.1 °F 32.2 °F 83% 29.82 in 10.0 mi NNW 9.2 mph - N/A   Overcast
5:18 PM 37.4 °F 31.4 °F 32.0 °F 81% 29.82 in 10.0 mi North 8.1 mph - N/A   Overcast
5:35 PM 36.5 °F 29.2 °F 32.4 °F 85% 29.82 in 10.0 mi North 10.4 mph - N/A   Overcast
5:38 PM 37.4 °F 30.3 °F 32.0 °F 81% 29.82 in 10.0 mi North 10.4 mph - N/A   Overcast
5:55 PM 36.1 °F 29.9 °F 32.0 °F 85% 29.81 in 10.0 mi North 8.1 mph - N/A   Overcast
6:15 PM 36.0 °F 27.5 °F 32.0 °F 86% 29.81 in 10.0 mi NNW 12.7 mph 17.3 mph N/A   Overcast
6:18 PM 35.6 °F 27.5 °F 32.0 °F 87% 29.81 in 10.0 mi North 11.5 mph 17.3 mph N/A   Overcast
6:35 PM 35.8 °F 28.3 °F 32.0 °F 86% 29.81 in 10.0 mi North 10.4 mph - N/A   Overcast
6:38 PM 35.6 °F 28.6 °F 32.0 °F 87% 29.81 in 10.0 mi North 9.2 mph - N/A   Overcast
6:55 PM 35.6 °F 29.2 °F 31.8 °F 86% 29.81 in 10.0 mi North 8.1 mph 17.3 mph N/A   Overcast
6:58 PM 35.6 °F 29.2 °F 30.2 °F 81% 29.81 in 10.0 mi North 8.1 mph - N/A   Overcast
7:15 PM 35.8 °F 28.8 °F 30.4 °F 81% 29.80 in 10.0 mi North 9.2 mph 16.1 mph N/A   Overcast
7:18 PM 35.6 °F 29.2 °F 30.2 °F 81% 29.80 in 10.0 mi North 8.1 mph 16.1 mph N/A   Overcast
7:35 PM 35.6 °F 28.0 °F 30.0 °F 80% 29.79 in 10.0 mi North 10.4 mph - N/A   Overcast
7:38 PM 35.6 °F 28.6 °F 30.2 °F 81% 29.79 in 10.0 mi North 9.2 mph - N/A   Overcast
7:55 PM 35.6 °F 27.5 °F 29.7 °F 79% 29.79 in 10.0 mi North 11.5 mph 17.3 mph N/A   Scattered Clouds
7:59 PM 35.6 °F 29.2 °F 28.4 °F 75% 29.79 in 10.0 mi North 8.1 mph 17.3 mph N/A   Scattered Clouds
8:15 PM 35.6 °F 29.2 °F 29.5 °F 78% 29.78 in 10.0 mi North 8.1 mph - N/A   Scattered Clouds
8:18 PM 35.6 °F 29.2 °F 28.4 °F 75% 29.78 in 10.0 mi North 8.1 mph - N/A   Mostly Cloudy
8:35 PM 35.6 °F 29.2 °F 28.2 °F 75% 29.79 in 10.0 mi North 8.1 mph - N/A   Overcast
8:38 PM 35.6 °F 28.6 °F 28.4 °F 75% 29.79 in 10.0 mi North 9.2 mph - N/A   Overcast
8:55 PM 34.9 °F 26.6 °F 28.4 °F 77% 29.79 in 10.0 mi North 11.5 mph 16.1 mph N/A   Overcast
8:58 PM 35.6 °F 28.0 °F 28.4 °F 75% 29.79 in 10.0 mi North 10.4 mph 16.1 mph N/A   Overcast
9:15 PM 34.3 °F 28.4 °F 28.8 °F 80% 29.79 in 10.0 mi NNE 6.9 mph - N/A Snow Light Snow
9:35 PM 33.1 °F 24.9 °F 30.0 °F 89% 29.79 in 4.0 mi North 10.4 mph - N/A Snow Light Snow
9:38 PM 33.8 °F 25.8 °F 30.2 °F 87% 29.79 in 4.0 mi North 10.4 mph - N/A Snow Light Snow
9:55 PM 32.5 °F 25.5 °F 32.0 °F 98% 29.78 in 2.5 mi North 8.1 mph - N/A Snow Light Snow
9:58 PM 33.8 °F 25.3 °F 32.0 °F 93% 29.78 in 2.5 mi North 11.5 mph - N/A Snow Light Snow
10:15 PM 32.2 °F 22.7 °F 32.0 °F 99% 29.77 in 1.8 mi North 12.7 mph 18.4 mph N/A Snow Light Snow
10:18 PM 32.0 °F 24.2 °F 32.0 °F 100% 29.77 in 2.0 mi North 9.2 mph 12.7 mph N/A Snow Light Snow
10:35 PM 32.0 °F 23.0 °F 32.0 °F 100% 29.76 in 1.5 mi North 11.5 mph 16.1 mph N/A Snow Light Snow
10:38 PM 32.0 °F 24.2 °F 32.0 °F 100% 29.76 in 1.5 mi North 9.2 mph 16.1 mph N/A Snow Light Snow
10:55 PM 32.0 °F 24.2 °F 31.8 °F 99% 29.76 in 1.8 mi North 9.2 mph 17.3 mph N/A Snow Light Snow
10:58 PM 32.0 °F 25.6 °F 32.0 °F 100% 29.76 in 1.8 mi North 6.9 mph 17.3 mph N/A Snow Light Snow
11:15 PM 32.0 °F 23.6 °F 31.8 °F 99% 29.76 in 1.5 mi North 10.4 mph - N/A Snow Light Snow
11:19 PM 32.0 °F 24.8 °F 32.0 °F 100% 29.76 in 1.5 mi North 8.1 mph - N/A Snow Light Snow
11:35 PM 31.8 °F 22.8 °F 31.6 °F 99% 29.76 in 1.0 mi North 11.5 mph - N/A Snow Snow
11:38 PM 32.0 °F 23.6 °F 30.2 °F 93% 29.76 in 1.0 mi North 10.4 mph - N/A Snow Snow
11:55 PM 31.5 °F 21.8 °F 31.1 °F 99% 29.75 in 1.2 mi North 12.7 mph - N/A Snow Light Snow
11:58 PM 30.2 °F 19.3 °F 30.2 °F 100% 29.75 in 1.2 mi North 15.0 mph 20.7 mph N/A Snow Light Snow